Weather observations for the past three days for
Ephraim-Gibraltar Airport
Imperial (Metric)
Date Time (cdt) Wind (mph) Vis. (mi.) Weather Sky Cond. Temperature (ºF) Relative Humidity Wind Chill (°F) Heat Index (°F) Pressure Precipitation (in)
Air Dwpt 6 hour altimeter (in) sea level (mb) 1 hr 3 hr 6 hr
Max. Min.
23 15:55 NE 7 10.00 Overcast OVC005 63 61.7 96% 30.01 0.0 0.02
23 15:15 NE 6 10.00 Overcast BKN005 OVC008 63.7 62.6 96% 30.01 0.0
23 14:55 NE 6 4.00 Drizzle OVC003 63.5 62.6 97% 30.01 0.0 0.01
23 14:35 NE 7 5.00 Rain OVC005 63.5 62.2 96% 30.01 0.0 0.01
23 14:15 E 5 7.00 Overcast BKN003 OVC010 63.7 62.6 96% 30.01 0.0 0.01
23 13:55 E 6 4.00 Drizzle BKN003 OVC007 63.5 62.2 96% 30.01 0.0 0.01
23 13:35 E 6 7.00 Drizzle BKN003 OVC007 63.1 62.1 96% 30.01 0.0 0.01
23 13:15 Calm 7.00 NULL NULL 63.5 62.6 97% 30.01 0.0 0.01
23 12:55 E 5 7.00 Overcast OVC005 63.5 62.2 63.9 60.3 96% 30.01 0.0 0.02 0.2
23 12:35 NE 5 10.00 Overcast OVC005 63.5 62.1 95% 30.01 0.0 0.01
23 12:15 NE 3 10.00 Overcast BKN005 BKN010 OVC014 63.5 62.2 96% 30.01 0.0 0.01
23 11:55 E 5 10.00 Overcast BKN005 BKN010 OVC014 63.3 62.1 96% 30.01 0.0 0.02
23 11:35 E 7 10.00 Overcast BKN005 BKN011 OVC045 63.1 61.9 96% 30.01 0.0 0.01
23 11:15 E 6 10.00 Overcast BKN007 BKN010 OVC045 63.5 62.2 96% 30.01 0.0
23 10:55 E 5 7.00 Drizzle BKN007 OVC034 62.6 61.5 96% 30.01 0.0 0.03
23 10:35 E 6 10.00 Light Drizzle SCT005 SCT010 OVC034 62.6 61.2 95% 30.01 0.0 0.02
23 10:15 E 9 7.00 Light Rain SCT005 OVC010 62.2 61.2 96% 30 0.0 0.01
23 09:55 E 7 5.00 Rain BKN003 OVC008 62.1 61 96% 30.01 0.0 0.03 0.13
23 09:35 E 6 5.00 Rain OVC003 62.1 61 96% 30 0.0 0.02
23 09:15 SE 6 10.00 Overcast OVC005 62.4 61.2 96% 30.01 0.0 0.01
23 08:55 E 7 10.00 Overcast OVC005 62.2 61.2 96% 30 0.0 0.04
23 08:35 E 7 10.00 Overcast OVC003 61.9 60.8 96% 29.99 0.0 0.03
23 08:15 SE 8 10.00 Overcast OVC003 61.7 60.6 96% 29.99 0.0 0.01
23 07:55 SE 8 10.00 Light Rain OVC003 61.7 60.6 96% 29.98 0.0 0.06
23 07:35 SE 6 7.00 Light Rain OVC003 61.2 60.1 96% 29.98 0.0 0.04
23 07:15 SE 9 10.00 Light Rain OVC003 60.4 59.4 96% 29.97 0.0 0.02
23 06:55 E 10 7.00 Light Rain BKN003 BKN009 OVC013 60.6 59.5 62.2 60.4 96% 29.97 0.0 0.07 0.24
23 06:35 SE 9 3.00 Rain SCT005 BKN016 OVC070 60.8 59.9 97% 29.98 0.0 0.05
23 06:15 SE 7 4.00 Heavy Rain SCT017 BKN060 OVC080 60.8 59.5 96% 29.98 0.0 0.02
23 05:55 SE 5 4.00 Heavy Rain SCT017 BKN050 OVC060 60.8 59.7 96% 29.99 0.0 0.14
23 05:35 SE 3 3.00 Heavy Rain BKN017 BKN031 OVC060 60.8 59.5 96% 29.99 0.0 0.11
23 05:15 Calm 3.00 Heavy Rain BKN015 BKN027 OVC045 61.2 59.2 93% 29.99 0.0 0.08
23 04:55 SE 3 10.00 Overcast SCT017 BKN021 OVC070 61.9 60.1 94% 29.98 0.0
23 04:35 Calm 10.00 Overcast BKN048 BKN050 OVC080 62.1 60.3 94% 29.97 0.0
23 04:15 E 5 10.00 Overcast BKN044 BKN060 OVC070 62.2 60.8 95% 29.96 0.0
23 03:55 E 3 10.00 Overcast BKN046 BKN060 OVC075 61.9 60.1 94% 29.96 0.0 0.03
23 03:35 Calm 10.00 Overcast SCT043 BKN049 OVC070 61.7 60.3 95% 29.96 0.0
23 03:15 E 5 10.00 Overcast BKN044 BKN060 OVC085 61.7 60.4 96% 29.96 0.0
23 02:55 Calm 10.00 Overcast SCT050 SCT060 OVC085 61 59.9 96% 29.97 0.0
23 02:35 Calm 10.00 Overcast SCT050 SCT070 OVC095 60.8 59.2 94% 29.97 0.0
23 02:15 SE 3 10.00 Overcast BKN065 BKN070 OVC080 60.4 59.2 96% 29.97 0.0
23 01:55 Calm 10.00 Light Rain SCT060 BKN090 OVC110 60.8 58.6 93% 29.97 0.0 0.03
23 01:30 S 3 10.00 Light Rain SCT050 OVC090 60.4 58.1 92% 29.98 0.0 0.02
23 01:15 S 6 10.00 Rain BKN055 BKN070 OVC090 61 57.4 88% 29.98 0.0 0.01
23 00:55 S 7 10.00 Light Rain BKN055 BKN090 OVC110 61.7 57.6 70.2 60.8 86% 29.98 0.0 0.04
23 00:35 S 6 10.00 Overcast SCT055 OVC110 61.3 58.3 90% 29.97 0.0
23 00:15 S 6 10.00 Light Drizzle OVC110 60.8 57.4 89% 29.98 0.0
22 23:55 S 6 10.00 Rain SCT050 SCT090 OVC110 61.7 58.6 90% 29.98 0.0 0.03
22 23:35 SW 3 10.00 Light Rain BKN050 BKN080 OVC110 63.7 59.4 86% 29.99 0.0 0.02
22 23:15 Calm 10.00 Light Rain BKN050 BKN060 OVC100 64.6 60.4 87% 29.98 0.0 0.01
22 22:55 W 3 7.00 Rain SCT065 BKN080 OVC100 66.4 60.8 82% 29.98 0.0 0.01
22 22:35 S 3 10.00 Mostly Cloudy SCT050 BKN080 BKN110 68 59.9 75% 29.97 0.0
22 20:50 S 3 10.00 Overcast BKN055 OVC065 66.6 58.1 74% 29.96 0.0
22 20:30 SE 3 10.00 Partly Cloudy SCT055 67.1 57.6 72% 29.96 0.0
22 19:35 S 5 10.00 Mostly Cloudy SCT050 BKN065 69.1 57.2 66% 29.96 0.0
22 19:15 SE 5 10.00 Mostly Cloudy SCT055 BKN065 69.8 56.5 63% 29.96 0.0
22 18:55 S 7 10.00 Partly Cloudy SCT065 70.3 55.6 79 70.3 60% 29.96 0.0
22 18:30 S 9 10.00 Partly Cloudy SCT060 72 54.3 54% 29.96 0.0
22 18:15 S 6 10.00 Partly Cloudy SCT060 SCT070 72.7 53.4 51% 29.96 0.0
22 17:55 S 7 10.00 Mostly Cloudy BKN060 BKN075 71.8 52.3 50% 29.96 0.0
22 17:35 S 7 10.00 Mostly Cloudy SCT060 BKN070 73.4 53.1 49% 29.96 0.0
22 17:15 S 8 10.00 Partly Cloudy SCT060 SCT070 71.6 53.8 54% 29.96 0.0
22 16:55 S 7 10.00 Partly Cloudy SCT055 SCT070 73.8 54 50% 29.96 0.0
22 16:35 S 9 10.00 Mostly Cloudy BKN055 BKN070 73.6 56.1 55% 29.96 0.0
22 16:15 SE 7 10.00 Overcast BKN055 OVC065 75.4 55.8 51% 78 29.96 0.0
22 15:55 SE 7 10.00 Overcast OVC060 75.7 56.5 51% 78 29.97 0.0
22 15:35 S 6 10.00 Mostly Cloudy BKN060 BKN070 75.6 57.2 53% 78 29.98 0.0
22 15:20 S 6 10.00 Mostly Cloudy BKN060 77 56.3 49% 79 29.98 0.0
22 14:50 SE 7 10.00 Fair CLR 77.2 56.1 48% 79 29.99 0.0
22 14:35 SE 6 10.00 Fair CLR 77.5 55.8 47% 79 29.99 0.0
22 13:55 SW 6 10.00 Partly Cloudy SCT060 78.4 52.3 40% 79 30 0.0
22 12:40 W 5 10.00 Fair CLR 75.6 55 49% 78 30.02 0.0
22 12:15 W 6 10.00 Fair CLR 75.9 55 48% 78 30.03 0.0
22 11:50 SW 5 10.00 Fair CLR 74.5 51.8 45% 30.03 0.0
22 11:35 W 6 10.00 Fair CLR 74.5 51.3 44% 30.03 0.0
22 11:15 W 5 10.00 Fair CLR 74.8 53.1 47% 30.04 0.0
22 10:55 W 5 10.00 Fair CLR 73.9 52.5 47% 30.05 0.0
22 10:35 W 3 10.00 Fair CLR 73 53.2 50% 30.05 0.0
22 10:15 W 6 10.00 Fair CLR 72.5 52.7 50% 30.05 0.0
22 09:55 W 3 10.00 Fair CLR 72.3 52.7 50% 30.05 0.0
22 09:30 W 3 10.00 Fair CLR 71.8 55.4 56% 30.06 0.0
22 09:15 Calm 10.00 Fair CLR 70.9 55.6 59% 30.06 0.0
22 08:50 Calm 10.00 Fair CLR 69.8 53.6 57% 30.06 0.0
22 08:35 Calm 10.00 Fair CLR 68.4 54.1 61% 30.06 0.0
22 08:15 Calm 10.00 Fair CLR 67.8 56.1 66% 30.06 0.0
22 08:00 Calm 10.00 Fair CLR 67.5 55.6 66% 30.06 0.0
22 07:35 Calm 10.00 Fair CLR 65.8 60.8 84% 30.06 0.0
22 07:10 Calm 10.00 Fair CLR 63.5 61.2 92% 30.06 0.0
22 06:55 Calm 10.00 Fair CLR 62.2 60.4 62.2 58.1 94% 30.07 0.0
22 06:35 Calm 10.00 Fair CLR 60.8 59.2 94% 30.07 0.0
22 06:15 Calm 10.00 Fair CLR 60.4 59 95% 30.07 0.0
22 05:55 Calm 10.00 Fair CLR 59.5 58.1 95% 30.07 0.0
22 05:30 Calm 10.00 Fair CLR 58.6 56.5 93% 30.06 0.0
22 05:15 Calm 10.00 Fair CLR 59 56.5 91% 30.06 0.0
22 04:55 Calm 10.00 Fair CLR 59.2 56.7 91% 30.06 0.0
22 04:35 Calm 10.00 Fair CLR 59.4 56.5 90% 30.06 0.0
22 04:15 Calm 10.00 Fair CLR 59.7 56.7 90% 30.06 0.0
22 03:55 NE 3 10.00 Fair CLR 58.3 55.8 91% 30.07 0.0
22 03:35 Calm 10.00 Fair CLR 59.5 56.3 89% 30.07 0.0
22 03:15 Calm 10.00 Fair CLR 60.1 57 90% 30.08 0.0
22 02:55 N 3 10.00 Fair CLR 60.4 57.4 90% 30.08 0.0
22 02:35 N 3 10.00 Fair CLR 60.3 57.2 90% 30.08 0.0
22 02:15 N 3 10.00 Fair CLR 59.9 57.2 91% 30.09 0.0
22 01:55 N 5 10.00 Fair CLR 59.7 55.8 87% 30.09 0.0
22 01:35 Calm 10.00 Fair CLR 59.9 55.9 87% 30.09 0.0
22 01:15 N 3 10.00 Fair CLR 59.7 55 85% 30.1 0.0
22 00:55 N 3 10.00 Fair CLR 61.2 55.4 72.9 59.7 81% 30.1 0.0
22 00:35 N 3 10.00 Fair CLR 61.3 54.5 78% 30.11 0.0
22 00:15 N 3 10.00 Fair CLR 62.2 52.9 72% 30.11 0.0
21 23:55 N 3 10.00 Fair CLR 61.3 51.6 71% 30.11 0.0
21 23:35 N 3 10.00 Fair CLR 62.4 49.8 64% 30.11 0.0
21 23:10 N 3 10.00 Fair CLR 61.7 50 66% 30.11 0.0
21 22:55 Calm 10.00 Fair CLR 63.5 50 62% 30.11 0.0
21 22:35 Calm 10.00 Fair CLR 63.3 49.1 60% 30.11 0.0
21 22:15 Calm 10.00 Fair CLR 62.6 49.3 62% 30.11 0.0
21 21:55 N 3 10.00 Fair CLR 61.3 49.3 65% 30.11 0.0
21 21:35 Calm 10.00 Fair CLR 62.8 49.3 62% 30.11 0.0
21 21:15 Calm 10.00 Fair CLR 60.8 51.6 72% 30.11 0.0
21 20:55 Calm 10.00 Fair CLR 61.9 49.3 64% 30.11 0.0
21 20:35 Calm 10.00 Fair CLR 64.8 49.5 58% 30.1 0.0
21 20:15 Calm 10.00 Fair CLR 65.1 50.4 59% 30.1 0.0
21 19:55 Calm 10.00 Fair CLR 67.5 50.2 54% 30.1 0.0
21 19:40 Calm 10.00 Fair CLR 69.6 49.6 49% 30.1 0.0
21 19:15 Calm 10.00 Fair CLR 72.3 46.6 40% 30.1 0.0
21 19:00 Calm 10.00 Fair CLR 72.9 46.2 39% 30.1 0.0
21 18:30 E 6 10.00 Fair CLR 73.9 45 36% 30.1 0.0
21 18:15 Calm 10.00 Fair CLR 74.1 45.3 36% 30.11 0.0
21 17:55 E 5 10.00 Fair CLR 74.5 45.9 36% 30.11 0.0
21 17:35 E 7 10.00 Fair CLR 74.7 45.7 36% 30.11 0.0
21 17:15 E 6 10.00 Fair CLR 75 45 34% 77 30.12 0.0
21 16:55 E 9 10.00 Fair CLR 74.8 44.8 34% 30.12 0.0
21 16:35 E 6 10.00 Fair CLR 74.8 45.7 36% 30.13 0.0
21 16:15 E 6 10.00 Fair CLR 74.7 46 36% 30.13 0.0
21 15:55 E 6 10.00 Fair CLR 75.4 47.8 38% 78 30.14 0.0
21 15:35 E 8 10.00 Fair CLR 75 46.4 36% 77 30.14 0.0
21 15:15 E 7 10.00 Fair CLR 75.6 48.4 38% 78 30.14 0.0
21 14:55 E 10 10.00 Fair CLR 75.2 48 38% 77 30.14 0.0
21 14:35 NE 9 10.00 Fair CLR 74.7 53.2 47% 30.15 0.0
21 14:15 N 9 10.00 Fair CLR 72.9 60.4 65% 30.15 0.0
21 13:55 N 8 10.00 Fair CLR 71.6 60.1 67% 30.15 0.0
21 13:35 N 13 10.00 Fair CLR 70.7 60.1 69% 30.15 0.0
21 13:15 N 12 10.00 Fair CLR 71.1 60.3 69% 30.15 0.0
21 12:55 N 10 G 16 10.00 Partly Cloudy SCT028 70.9 60.8 70.9 63 71% 30.15 0.0
21 12:35 N 13 10.00 Fair CLR 70.2 60.8 72% 30.15 0.0
21 12:15 N 9 10.00 Fair CLR 69.8 61.2 74% 30.16 0.0
21 11:55 N 10 10.00 Fair CLR 68.9 60.3 74% 30.16 0.0
21 11:35 N 10 10.00 Fair CLR 68.9 59.9 73% 30.16 0.0
21 11:15 N 9 10.00 Fair CLR 68.9 59.2 71% 30.16 0.0
21 10:55 N 9 10.00 Fair CLR 68.7 58.8 71% 30.16 0.0
21 10:35 N 10 10.00 Fair CLR 68.5 58.8 71% 30.15 0.0
21 10:10 N 5 10.00 Fair CLR 68.2 58.5 71% 30.15 0.0
21 09:55 N 6 10.00 Fair CLR 68.7 58.3 69% 30.15 0.0
21 09:35 N 5 10.00 Fair CLR 68 58.1 71% 30.15 0.0
21 09:15 N 5 10.00 Fair CLR 67.5 58.5 73% 30.14 0.0
21 08:55 N 5 10.00 Fair CLR 66.7 58.1 74% 30.14 0.0
21 08:35 NE 5 10.00 Fair CLR 66 57.2 73% 30.14 0.0
21 08:15 N 5 10.00 Fair CLR 65.1 55.9 72% 30.14 0.0
21 07:55 NE 7 10.00 Fair CLR 64.2 55.8 74% 30.15 0.0
21 07:35 N 7 10.00 Fair CLR 63.7 56.3 77% 30.15 0.0
21 07:15 N 8 10.00 Fair CLR 63.3 55.4 76% 30.15 0.0
21 06:55 N 6 10.00 Fair CLR 63 54.7 75% 30.14 0.0
21 06:35 N 7 10.00 Fair CLR 63 54 73% 30.14 0.0
21 06:15 N 8 10.00 Fair CLR 62.6 54 74% 30.13 0.0
21 05:55 N 8 10.00 Fair CLR 62.4 54.1 74% 30.13 0.0
21 05:35 N 8 10.00 Fair CLR 0 0 0% 30.12 0.0
21 05:15 N 7 10.00 Fair CLR 62.6 51.8 68% 30.12 0.0
21 04:55 N 9 10.00 Fair CLR 62.6 50.5 65% 30.12 0.0
21 04:35 N 9 10.00 Fair CLR 62.8 50.7 65% 30.12 0.0
21 04:15 N 7 10.00 Fair CLR 63 52.3 68% 30.12 0.0
21 03:55 N 7 10.00 Fair CLR 62.8 53.1 71% 30.11 0.0
21 03:35 N 7 10.00 Fair CLR 62.6 52.3 69% 30.11 0.0
21 03:15 N 7 10.00 Fair CLR 63 53.6 72% 30.1 0.0
21 02:55 N 5 10.00 Fair CLR 63 55.6 77% 30.1 0.0
21 02:35 NE 6 10.00 Fair CLR 63.5 57.2 80% 30.1 0.0
21 02:15 N 6 10.00 Mostly Cloudy BKN070 63.7 57.4 80% 30.11 0.0
21 01:55 N 5 10.00 Overcast SCT070 OVC080 64.4 57.4 78% 30.11 0.0
21 01:35 N 6 10.00 Overcast OVC080 64.4 57.4 78% 30.11 0.0
21 01:15 NE 7 10.00 Overcast OVC080 64.9 57.9 78% 30.11 0.0
21 00:55 N 7 10.00 Overcast OVC080 64.8 58.6 70.7 64.8 81% 30.11 0.0
21 00:35 N 6 10.00 Mostly Cloudy SCT060 BKN080 64.9 59.2 82% 30.11 0.0
21 00:15 N 8 10.00 Mostly Cloudy SCT060 BKN080 64.9 59.5 83% 30.11 0.0
20 23:55 N 8 10.00 Partly Cloudy SCT080 65.3 60.6 85% 30.11 0.0
20 23:35 N 8 G 16 10.00 Overcast OVC080 66.4 61.3 84% 30.11 0.0
20 23:15 N 10 10.00 Overcast SCT070 OVC080 67.1 62.6 86% 30.1 0.0
20 22:55 N 8 10.00 Overcast BKN070 OVC080 67.6 62.6 84% 30.1 0.0
20 22:35 N 8 10.00 Overcast SCT080 OVC085 68.2 62.8 83% 30.1 0.0
20 22:15 N 9 10.00 Overcast OVC080 68.7 62.6 81% 30.1 0.0
20 21:50 N 7 10.00 Overcast OVC080 69.4 64.2 84% 30.09 0.0
20 21:35 N 7 10.00 Overcast OVC080 69.4 66.6 91% 30.09 0.0
20 21:15 N 5 10.00 Overcast OVC080 69.3 67.1 93% 30.08 0.0
20 20:55 N 5 10.00 Partly Cloudy SCT080 69.1 66.6 92% 30.08 0.0
20 20:35 N 5 10.00 Fair CLR 68.4 65.8 92% 30.08 0.0
20 20:15 N 3 10.00 Partly Cloudy SCT065 68.2 66.2 93% 30.07 0.0
20 19:50 N 3 10.00 Partly Cloudy SCT060 SCT065 69.3 66.6 91% 30.06 0.0
20 19:35 Calm 10.00 Partly Cloudy SCT060 SCT065 SCT080 70.3 65.7 85% 30.06 0.0
20 19:15 Calm 10.00 Overcast SCT070 OVC080 70.2 66.2 87% 30.05 0.0
20 18:55 Calm 10.00 Overcast BKN070 OVC080 70.3 66 80.1 69.3 86% 30.05 0.0
20 18:35 Calm 10.00 Overcast BKN070 OVC080 70.2 66.6 88% 30.05 0.0
20 18:15 N 5 10.00 Overcast SCT050 OVC070 69.8 66.7 90% 30.05 0.0
20 17:55 N 7 10.00 Overcast OVC050 69.8 65.3 86% 30.05 0.0
20 17:35 NW 3 10.00 Mostly Cloudy SCT060 SCT070 BKN120 69.4 65.3 87% 30.04 0.0
20 17:15 NW 7 10.00 Light Rain SCT055 BKN070 BKN095 70 63.3 80% 30.04 0.0
20 16:55 W 5 10.00 Overcast SCT050 BKN075 OVC095 77 59.5 55% 79 30.03 0.0
20 16:35 Calm 10.00 Mostly Cloudy SCT075 BKN085 78.6 59.4 52% 80 30.04 0.0
Date Time (cdt) Wind (mph) Vis. (mi.) Weather Sky Cond. Air Dwpt Max. Min. Relative Humidity Wind Chill (°F) Heat Index (°F) altimeter (in) sea level (mb) 1 hr 3 hr 6 hr
6 hour
Temperature (ºF) Pressure Precipitation (in)